Погода в Каскесручье

Россия / Республика Карелия     61°12′18″N   35°35′59″E
темп.,
°C
ветер,
м/с
пор.,
м/с
влажн.,
%
обл.,
%
осадки,
мм/ч
давл.,
гПа
погр.,
м
24 июня, чт
чт2400:00+22ююз227412 0.0 101624
03:00+21юз39719 0.0 1015158
06:00+22юз410714 0.0 1015265
09:00+26зюз58572 0.0 1015773
12:00+28зюз58471 0.0 10151322
15:00+29з46395 0.0 10141401
18:00+28зюз464028 0.0 10141170
21:00+23зюз366270 0.0 1013118
25 июня, пт
пт2500:00+19юз22816 0.0 101529
03:00+17сз2290100 0.0 101423
06:00+20сз127698 0.0 1014134
09:00+22ссв216680 0.0 1015670
12:00+24ссв325866 0.0 10151119
15:00+24ссв335825 0.0 1015929
18:00+22св34596 0.0 1014327
21:00+19ссв246894 0.0 101291
26 июня, сб
сб2600:00+18св1169100 0.0 101314
03:00+18всв1282100 0.1 101221
06:00+17в2497100 1.8 1011112
09:00+17всв249685 2.1 1012132
12:00+17ссв379886 1.4 1012198
15:00+22ссв447793 1.5 1012585
18:00+22с347621 0.0 1011465
21:00+18с368899 0.1 1012151
27 июня, вс
вс2700:00+17ссв2394100 0.0 101363
03:00+17всв229924 0.0 101343
06:00+18всв239027 0.0 1013123
09:00+21в347340 0.0 1013425
12:00+24всв346223 0.0 1013747
15:00+26св2356100 0.0 1011870
18:00+23св23686 0.4 1010219
21:00+19ю2597100 3.3 1010103
28 июня, пн
пн2800:00+17ююв2497100 0.6 101087
03:00+17ю259924 0.6 1009101
06:00+19юз379779 0.0 1008236
09:00+20юз3691100 0.2 1008281
12:00+25юз3656100 0.0 10081018
15:00+27зюз464619 0.0 10081483
18:00+26зюз564747 0.0 10081549
21:00+21з486561 0.0 1008374